This is the latest recevied weather packets stored in our database for station/object K8GLX. If no packets are shown the sender has not sent any weather packets the latest 10 day(s).
| Time | Temp. | Humidity | Pressure | Rain* | Wind** | Luminosity | Snow |
|---|---|---|---|---|---|---|---|
| 1777209861 | 7.78° C | 95% | 1020.1 hPa | 0 mm | - | 165 W/m² | - |
| 1777209428 | 7.78° C | 96% | 1020.1 hPa | 0 mm | - | 136 W/m² | - |
| 1777209133 | 7.78° C | 96% | 1020.3 hPa | 0 mm | - | 125 W/m² | - |
| 1777208948 | 7.78° C | 96% | 1020.1 hPa | 0 mm | - | 121 W/m² | - |
| 1777208660 | 7.78° C | 96% | 1019.7 hPa | 0 mm | - | 107 W/m² | - |
| 1777208228 | 7.22° C | 97% | 1019.8 hPa | 0 mm | - | 113 W/m² | - |
| 1777208060 | 7.22° C | 97% | 1020 hPa | 0 mm | - | 81 W/m² | - |
| 1777207628 | 7.22° C | 97% | 1019.9 hPa | 0 mm | - | 74 W/m² | - |
| 1777207334 | 7.22° C | 97% | 1019.7 hPa | 0 mm | - | 69 W/m² | - |
| 1777207028 | 7.22° C | 97% | 1019.8 hPa | 0 mm | - | 60 W/m² | - |
| 1777206734 | 7.22° C | 97% | 1019.8 hPa | 0 mm | - | 59 W/m² | - |
| 1777206428 | 7.22° C | 97% | 1019.7 hPa | 0 mm | - | 50 W/m² | - |
| 1777206133 | 7.22° C | 97% | 1019.7 hPa | 0 mm | - | 43 W/m² | - |
| 1777205828 | 7.22° C | 97% | 1019.8 hPa | 0 mm | - | 42 W/m² | - |
| 1777205534 | 7.22° C | 97% | 1019.7 hPa | 0 mm | - | 39 W/m² | - |
| 1777205228 | 7.22° C | 98% | 1019.7 hPa | 0 mm | - | 46 W/m² | - |
| 1777204933 | 7.22° C | 98% | 1019.7 hPa | 0 mm | - | 37 W/m² | - |
| 1777204628 | 7.22° C | 98% | 1019.8 hPa | 0 mm | - | 37 W/m² | - |
| 1777204335 | 7.22° C | 98% | 1019.6 hPa | 0 mm | - | 33 W/m² | - |
| 1777204028 | 7.22° C | 98% | 1019.6 hPa | 0 mm | - | 29 W/m² | - |
| 1777203734 | 7.22° C | 98% | 1019.6 hPa | 0 mm | - | 26 W/m² | - |
| 1777203428 | 7.22° C | 98% | 1019.4 hPa | 0 mm | - | 23 W/m² | - |
| 1777203134 | 7.22° C | 98% | 1019.4 hPa | 0 mm | - | 20 W/m² | - |
| 1777202940 | 7.22° C | 98% | 1019.2 hPa | 0 mm | - | 15 W/m² | - |
| 1777202662 | 7.22° C | 98% | 1019.2 hPa | 0 mm | - | 13 W/m² | - |
* Rain latest hour (hover to see other rain measurements)
** Current wind speed in m/s (hover to see current wind gust speed)